Regional Weather Roundup
Issued by NWS

Home | Current Version | Previous Version | Text Only | Print | Product List | Glossary Off
Versions: 1 2 3 4 5 6 7 8 9 10 11 12 13 14 15 16 17 18 19 20 21 22 23 24 25 26 27 28 29 30 31 32 33 34 35 36 37 38 39 40 41 42 43 44 45 46 47 48 49 50

000
ASUS45 KABQ 221701
RWRNM
NEW MEXICO REGIONAL WEATHER ROUNDUP
NATIONAL WEATHER SERVICE ALBUQUERQUE NM
1100 AM MDT TUE MAY 22 2018

NOTE: "FAIR" MEANS FEW OR NO CLOUDS BELOW 12,000 FEET AGL WITH NO
       SIGNIFICANT WEATHER OR OBSTRUCTIONS TO VISION.

      THIS PRODUCT IS RELEASED AS TWO VERSIONS.  ONE VERSION NEAR
      THE TOP OF THE HOUR CONTAINING PRELIMINARY DATA FROM ALBUQUERQUE
      AND OTHER STATIONS.  A FINAL VERSION WITH ADDITIONAL DATA IS
      ISSUED ABOUT 10 MINUTES AFTER THE HOUR.

NMZ501-503-504-510>518-221800-
NORTHWEST PLATEAU/NORTHCENTRAL MOUNTAINS

CITY           SKY/WX    TMP DP  RH WIND       PRES   REMARKS
FARMINGTON     FAIR      70  43  37 SE10      29.99F
LOS ALAMOS     FAIR      58  47  67 S8        30.19F
SANTA FE       FAIR      64  50  60 SE17      30.13F
TAOS           FAIR      59  44  57 NW6       30.19F
ANGEL FIRE     PTSUNNY   58  46  62 NW5       30.21F

$$
NMZ402-403-502-505>509-221800-
WESTCENTRAL MOUNTAINS/SOUTHWEST MOUNTAINS

CITY           SKY/WX    TMP DP  RH WIND       PRES   REMARKS
GALLUP         FAIR      70  27  20 S14G26    30.04F
GRANTS         FAIR      65  48  54 SE13G22   30.10F
SILVER CITY    PTSUNNY   73  15  10 SE12G17   30.07F

$$
NMZ407-409-411-412-221800-
SOUTHERN DESERTS

CITY           SKY/WX    TMP DP  RH WIND       PRES   REMARKS
DEMING         FAIR      79  24  13 VRB7      30.01F
LAS CRUCES     FAIR      79  48  32 S9G18     30.02F
ALAMOGORDO     FAIR      73  52  46 S3        30.02F
T OR C         FAIR      78  33  19 S14G20    30.02F

$$
NMZ519>523-221800-
CENTRAL VALLEYS/CENTRAL HIGHLANDS

CITY           SKY/WX    TMP DP  RH WIND       PRES   REMARKS
ALBUQUERQUE    FAIR      70  49  47 W9G24     30.07F
DOUBLE EAGLE   MOSUNNY   68  52  56 SE17G23   30.10F
MORIARTY ARPT  FAIR      66  53  63 S5        30.14F
CLINES CORNERS FAIR      65  50  58 S15G23    30.18F
BELEN          FAIR      73  45  37 S17       30.05F
SOCORRO        FAIR      75  39  27 S15G22    30.03F

$$
NMZ524>526-539-540-221800-
SOUTHCENTRAL MOUNTAINS

CITY           SKY/WX    TMP DP  RH WIND       PRES   REMARKS
RUIDOSO        NOT AVBL

$$
NMZ527>531-221800-
NORTHEAST HIGHLANDS/NORTHEAST PLAINS

CITY           SKY/WX    TMP DP  RH WIND       PRES   REMARKS
LAS VEGAS      FAIR      63  49  60 S17G28    30.16F
RATON          FAIR      69  47  45 S21       30.09F
CLAYTON        FAIR      68  50  52 SW15G29   30.05S

$$
NMZ532>537-221800-
EASTCENTRAL PLAINS

CITY           SKY/WX    TMP DP  RH WIND       PRES   REMARKS
SANTA ROSA     FAIR      69  53  57 S12       30.07F
TUCUMCARI      FAIR      72  54  53 S10       30.03F
CANNON AFB     NOT AVBL
CLOVIS AIRPORT PTSUNNY   70  56  61 S12       30.10S

$$
NMZ028-029-538-221800-
SOUTHEAST PLAINS

CITY           SKY/WX    TMP DP  RH WIND       PRES   REMARKS
ROSWELL        PTSUNNY   71  58  63 SE10      30.04F
ARTESIA        PTSUNNY   70  63  78 CALM      30.05F
CARLSBAD       FAIR      75  60  59 SE7       30.02F
HOBBS          PTSUNNY   75  61  60 SE13G21   30.05S


$$




USA.gov is the U.S. government's official web portal to all federal, state and local government web resources and services.